星链-30530 (STARLINK-30530 )

导读

STARLINK-30530是美国SpaceX公司星链星座的成员,于2023年10月5日发射入轨。它属于低轨宽带通信卫星,属于第二代星链卫星,配备相控阵天线、霍尔推进器与自主避撞系统,依托星链星座组网,为全球尤其是偏远区域提供高速低时延互联网接入服务,单星设计使用寿命约5-7年,退役后会主动离轨在大气层焚毁,减少空间碎片影响。

Basic Information
目录编号:
58005
目录名称:
STARLINK-30530
国际标识:
2023-153Q
轨道中心:
EARTH
卫星名称:
星链-30530
卫星全名:
星链-30530 (STARLINK-30530 )
卫星状态:
在轨 (已飞行1072 天)
发射日期:
2023-10-05 UTC
国别 :
美国 (US)
星等 :
--
This satellite is enrolled in the Space Conjunction Data Service (SCDS) and the current flight risk assessment level is: High Risk
Orbit Information
数据来源 国际轨道数据
星历时间: 2026-09-11T07:10:06+0800
18小时前
查看轨道信息
半长轴: 6861.203km
偏心率: 0.0002076
轨道倾角: 43.006°
近地点辐角 266.014°
升交点赤经 100.560°
平近点角 94.048°
近地点: 481.641km
远地点: 484.491km
周期: 94.267分钟
每日圈数: 15.275745
Detailed Information
固有亮度:
5
最大亮度:
0.3
卫星平台:
Starlink v2.0 mini
覆盖范围:
全球
运营商:
太空探索技术公司
运营商所在国:
美国
制造商(研发单位):
太空探索技术公司
制造商所在国:
美国
使用方式:
暂无
Satellite Introduction
星链(Starlink)计划是由太空探索技术公司(SpaceX)提出的一个巨型低轨卫星互联网星座项目,计划在2019年至2024年间在太空搭建由约1.2万颗卫星组成的“星链”网络,其中1584颗将部署在地球上空550千米处的近地轨道,并从2020年开始工作。该卫星仍在工作。
2D Orbit Map
3D Orbit Map
Orbit Altitude Analysis Chart
Orbit Inclination Analysis Chart
Orbit Comprehensive Analysis Chart
View Comprehensive Chart
Conjunction Data List
Event ID Objects TCA Miss Dist (km) Collision Risk Probability Collision Risk Index (CRI) Action
CDM_260913-043605-800506-653621
2026-09-13T
04:36:52+0000
0.268 km
中距离
5.031571E-4 高风险 0.89
CDM_260913-153805-800506-646721
2026-09-13T
15:38:58+0000
1.089 km
极远距离
1.472307E-5 中风险 0.58
CDM_260913-193105-800506-653621
2026-09-13T
19:31:20+0000
1.171 km
极远距离
1.191122E-5 中风险 0.57
CDM_260913-175705-800506-653621
2026-09-13T
17:57:10+0000
1.814 km
极远距离
2.896989E-6 低风险 0.44
CDM_260913-171305-800506-646721
2026-09-13T
17:13:07+0000
1.795 km
极远距离
2.875503E-6 低风险 0.44
CDM_260913-030205-800506-653621
2026-09-13T
03:02:43+0000
2.034 km
极远距离
2.149285E-6 低风险 0.42
CDM_260913-061105-800506-653621
2026-09-13T
06:11:01+0000
2.515 km
极远距离
1.380923E-6 低风险 0.38
Miss Distance Evolution Trend with All Objects
Collision Probability Evolution Trend with All Objects